Simultaneous Nadir Overpasses (SNOs) Predictions

Prediction of SNOs between GOES-17 and TERRA Satellite Orbit:

Table of predicted SNOs for the next 14.0 days since TLE Epoch: 1/18/2025
Index Date Time (GOES-17) GOES-17 Lat,Lon TERRA Lat,Lon Distance(km) Time Diff (sec)
1 01/18/2025 04:37:40 -0.00,-104.67 -0.25,-105.78 125.78 80
2 01/20/2025 04:16:27 -0.01,-104.68 0.71,-101.31 382.92 80
3 01/20/2025 16:36:03 0.00,-104.70 0.32,-106.07 157.02 80
4 01/22/2025 16:20:10 0.00,-104.70 -0.67,-101.61 352.14 80
5 01/23/2025 04:39:56 -0.00,-104.69 -0.34,-106.42 195.88 80
6 01/25/2025 04:18:41 -0.00,-104.69 0.57,-101.93 312.80 80
7 01/25/2025 16:38:18 0.00,-104.70 0.39,-106.71 228.11 80
8 01/27/2025 16:22:22 0.01,-104.70 -0.49,-102.22 280.91 80
9 01/28/2025 04:42:08 -0.00,-104.69 -0.49,-107.03 266.22 80
10 01/30/2025 04:20:52 -0.01,-104.68 0.43,-102.54 242.79 80
11 01/30/2025 16:40:28 0.01,-104.69 0.53,-107.32 298.91 80
